Barter Island, AK

8:01 AM AKDT on April 19, 2018 (GMT -0800)
Barter Island LRRS

Weather History for PABA - October, 2012

Change the Weather History Date:

Friday, October 5, 2012

  Actual Average Record
Temperature  
Mean Temperature 38 °F -  
Max Temperature 35 °F 27 °F 37 °F (2016)
Min Temperature 33 °F 19 °F 12 °F (2008)
Degree Days  
Heating Degree Days 26    
Moisture  
Dew Point 36 °F    
Average Humidity 98    
Maximum Humidity 100    
Minimum Humidity 82    
Precipitation  
Precipitation 0.06 in - - ()
Sea Level Pressure  
Sea Level Pressure 29.94 in    
Wind  
Wind Speed 15 mph (ESE)    
Max Wind Speed 21 mph    
Max Gust Speed -    
Visibility 5 miles    
Events Fog , Rain    
Averages and records for this station are not official NWS values.
T = Trace of Precipitation, MM = Missing Value Source: NWS Daily Summary

Daily Weather History Graph

Daily Weather History Graph

Search for Another Location

Airport or City:

Astronomy

Oct. 05, 2012 Rise Set
Actual Time 8:09 AM AKDT 6:33 PM AKDT
Civil Twilight 7:07 AM AKDT 7:34 PM AKDT
Nautical Twilight 5:55 AM AKDT 8:46 PM AKDT
Astronomical Twilight 4:34 AM AKDT 10:06 PM AKDT
Moon No Moon Rise No Moon Set
Length of Visible Light 12h 27m
Length of Day
10h 24m
Waning Gibbous, 73% of the Moon is Illuminated
Oct 5
Waning Gibbous
Oct 7
Last Quarter
Oct 15
New
Oct 21
First Quarter
Oct 29
Full

Hourly Weather History & Observations

Time (AKDT) Temp. Windchill Dew Point Humidity Pressure Visibility Wind Dir Wind Speed Gust Speed Precip Events Conditions
12:01 AM 37.9 °F 30.0 °F 37.0 °F 97% 29.96 in 10.0 mi East 12.7 mph - N/A   Partly Cloudy
1:01 AM 37.9 °F 29.6 °F 37.0 °F 97% 29.96 in 10.0 mi East 13.8 mph - N/A   Clear
2:01 AM 37.9 °F 28.9 °F 37.0 °F 97% 29.96 in 9.0 mi East 16.1 mph - N/A   Clear
3:01 AM 37.0 °F 27.4 °F 37.0 °F 100% 29.97 in 9.0 mi East 17.3 mph - N/A   Clear
3:52 AM 37.4 °F 28.5 °F 37.4 °F 100% 29.96 in 1.8 mi East 15.0 mph - 0.00 in Rain Light Rain
3:56 AM 37.4 °F 28.2 °F 37.4 °F 100% 29.96 in 1.0 mi East 16.1 mph - 0.00 in Rain Light Rain
4:01 AM 37.4 °F 28.2 °F 37.4 °F 100% 29.96 in 0.8 mi East 16.1 mph - 0.00 in Rain Light Rain
4:09 AM 37.4 °F 27.8 °F 37.4 °F 100% 29.96 in 0.5 mi East 17.3 mph - 0.00 in Fog , Rain Light Rain
4:17 AM 37.4 °F 27.5 °F 37.4 °F 100% 29.96 in 0.8 mi East 18.4 mph - 0.00 in   Overcast
4:27 AM 37.0 °F 27.4 °F 37.0 °F 100% 29.96 in 0.8 mi East 17.3 mph - 0.00 in   Overcast
4:44 AM 37.4 °F 27.8 °F 37.4 °F 100% 29.96 in 1.2 mi East 17.3 mph - 0.00 in   Overcast
4:53 AM 37.4 °F 27.8 °F 37.4 °F 100% 29.96 in 2.5 mi East 17.3 mph - 0.00 in   Overcast
5:01 AM 37.0 °F 27.7 °F 37.0 °F 100% 29.96 in 2.0 mi East 16.1 mph - 0.00 in   Overcast
5:10 AM 37.4 °F 28.2 °F 37.4 °F 100% 29.96 in 1.0 mi East 16.1 mph - 0.00 in   Overcast
5:23 AM 37.4 °F 27.8 °F 37.4 °F 100% 29.96 in 2.0 mi East 17.3 mph - 0.00 in   Overcast
5:31 AM 37.4 °F 27.5 °F 37.4 °F 100% 29.96 in 8.0 mi East 18.4 mph - 0.00 in   Overcast
6:01 AM 37.0 °F 26.4 °F 37.0 °F 100% 29.95 in 8.0 mi ESE 20.7 mph - 0.00 in   Overcast
6:40 AM 37.4 °F 28.9 °F 37.4 °F 100% 29.96 in 1.8 mi ESE 13.8 mph - N/A   Overcast
6:47 AM 37.4 °F 27.8 °F 37.4 °F 100% 29.95 in 0.8 mi ESE 17.3 mph - 0.00 in   Overcast
7:01 AM 36.0 °F 25.3 °F 36.0 °F 100% 29.95 in 0.8 mi ESE 19.6 mph - 0.00 in   Overcast
7:50 AM 35.6 °F 24.5 °F 35.6 °F 100% 29.94 in 0.5 mi ESE 20.7 mph - 0.00 in Fog , Rain Light Rain
8:01 AM 36.0 °F 25.3 °F 36.0 °F 100% 29.93 in 0.5 mi ESE 19.6 mph - 0.00 in Fog , Rain Light Rain
8:14 AM 35.6 °F 25.2 °F 35.6 °F 100% 29.93 in 0.2 mi ESE 18.4 mph - 0.00 in Fog , Rain Light Rain
8:35 AM 35.6 °F 25.5 °F 35.6 °F 100% 29.92 in 0.8 mi ESE 17.3 mph - 0.00 in Rain Light Rain
8:40 AM 35.6 °F 25.9 °F 35.6 °F 100% 29.92 in 1.2 mi ESE 16.1 mph - 0.00 in   Overcast
8:44 AM 35.6 °F 25.9 °F 35.6 °F 100% 29.92 in 3.0 mi ESE 16.1 mph - 0.00 in   Overcast
8:49 AM 35.6 °F 25.5 °F 35.6 °F 100% 29.92 in 1.5 mi ESE 17.3 mph - 0.00 in   Overcast
8:51 AM 35.6 °F 25.5 °F 35.6 °F 100% 29.92 in 0.8 mi ESE 17.3 mph - 0.00 in   Overcast
8:58 AM 35.6 °F 25.9 °F 35.6 °F 100% 29.93 in 0.5 mi ESE 16.1 mph - 0.00 in Fog Fog
9:01 AM 35.1 °F 24.8 °F 35.1 °F 100% 29.93 in 0.5 mi ESE 17.3 mph - 0.00 in Fog Fog
9:18 AM 35.6 °F 27.1 °F 35.6 °F 100% 29.93 in 1.0 mi ESE 12.7 mph - 0.00 in   Overcast
9:21 AM 35.6 °F 27.1 °F 35.6 °F 100% 29.93 in 2.0 mi ESE 12.7 mph - 0.00 in   Overcast
9:29 AM 35.6 °F 27.5 °F 35.6 °F 100% 29.92 in 7.0 mi ESE 11.5 mph - 0.00 in   Overcast
9:47 AM 33.8 °F 24.8 °F 33.8 °F 100% 29.93 in 10.0 mi ESE 12.7 mph - 0.00 in   Scattered Clouds
10:01 AM 35.1 °F 26.9 °F 34.0 °F 96% 29.93 in 10.0 mi SE 11.5 mph - 0.00 in   Clear
10:37 AM 35.6 °F 26.2 °F 35.6 °F 100% 29.90 in 10.0 mi ESE 15.0 mph - N/A   Partly Cloudy
10:56 AM 35.6 °F 26.2 °F 35.6 °F 100% 29.90 in 1.8 mi ESE 15.0 mph - N/A   Scattered Clouds
10:59 AM 35.6 °F 25.9 °F 35.6 °F 100% 29.90 in 0.8 mi ESE 16.1 mph - 0.00 in   Mostly Cloudy
11:01 AM 35.6 °F 25.9 °F 35.6 °F 100% 29.90 in 0.5 mi ESE 16.1 mph - 0.00 in Fog Fog
11:11 AM 35.6 °F 26.6 °F 35.6 °F 100% 29.91 in 0.2 mi SE 13.8 mph - 0.00 in Fog Fog
11:21 AM 37.4 °F 29.3 °F 37.4 °F 100% 29.91 in 1.0 mi ESE 12.7 mph - 0.00 in   Overcast
11:29 AM 37.4 °F 29.3 °F 37.4 °F 100% 29.91 in 4.0 mi ESE 12.7 mph - 0.00 in   Overcast
11:49 AM 37.4 °F 28.9 °F 37.4 °F 100% 29.91 in 10.0 mi ESE 13.8 mph - 0.00 in   Mostly Cloudy
12:01 PM 37.9 °F 30.5 °F 37.0 °F 97% 29.91 in 10.0 mi ESE 11.5 mph - 0.00 in   Mostly Cloudy
1:01 PM 39.0 °F 36.8 °F 36.0 °F 89% 29.94 in 10.0 mi West 3.5 mph - N/A   Overcast
2:01 PM 39.9 °F 33.4 °F 36.0 °F 86% 29.95 in 10.0 mi West 10.4 mph - 0.00 in Rain Light Rain
3:01 PM 37.9 °F 32.1 °F 36.0 °F 93% 29.93 in 7.0 mi South 8.1 mph - 0.06 in Rain Rain
4:01 PM 39.0 °F 35.7 °F 37.0 °F 93% 29.93 in 10.0 mi South 4.6 mph - 0.00 in   Overcast
5:01 PM 44.1 °F 37.1 °F 39.0 °F 82% 29.93 in 10.0 mi West 15.0 mph - N/A   Mostly Cloudy
6:01 PM 39.9 °F 33.4 °F 37.9 °F 93% 29.93 in 10.0 mi West 10.4 mph - N/A   Clear
7:01 PM 39.0 °F 31.0 °F 37.0 °F 93% 29.94 in 10.0 mi West 13.8 mph - N/A   Clear
8:01 PM 39.9 °F 32.5 °F 37.0 °F 89% 29.93 in 10.0 mi West 12.7 mph - N/A   Clear
9:01 PM 36.0 °F 29.6 °F 34.0 °F 93% 29.92 in 10.0 mi SSW 8.1 mph - N/A   Clear
10:01 PM 36.0 °F 28.5 °F 33.1 °F 89% 29.91 in 10.0 mi SSW 10.4 mph - N/A   Clear
11:01 PM 36.0 °F 29.0 °F 33.1 °F 89% 29.91 in 10.0 mi SSW 9.2 mph - N/A   Clear